Date String (YYYY-MM-DD hh:mm:ss) UTC,Instrument flags,Ambient pressure (hPa),Sample flow (lpm),Bypass flow (lpm),Sample temperature (°C),Ambient temperature (°C),ASC tube jacket temperature (°C),LED temperature (°C),Box temperature (°C),Sample RH (%),Span deviation,Mass concentration (μg/m³),Mass concentration (μg/m³),Mass concentration (μg/m³)
DateTimeUTC,F1_M11,P_M11,Q1_M11,Q2_M11,T1_M11,T2_M11,T3_M11,T4_M11,T5_M11,U1_M11,ZSPAN_M11,X0_M11,X2_M11,X1_M11
2022-09-02 02:00:00,,0825.7,5.01,0.00,29.4,28.2,00.0,38.1,31.4,16.9,0000.0,0014.94,0006.58,0005.83
2022-09-02 02:01:00,,0825.7,4.99,0.00,29.5,28.3,00.0,38.1,31.4,16.9,0000.0,0014.42,0006.58,0005.83
2022-09-02 02:02:00,,0825.7,4.98,0.00,29.5,28.5,00.0,38.1,31.5,16.7,0000.0,0014.54,0006.61,0005.83
2022-09-02 02:03:00,,0825.7,5.00,0.00,29.6,28.6,00.0,38.2,31.6,16.6,0000.0,0014.28,0006.66,0005.84
2022-09-02 02:04:00,,0825.7,5.00,0.00,29.6,27.6,00.0,38.2,31.4,16.6,0000.0,0014.67,0006.73,0005.87
2022-09-02 02:05:00,,0825.7,5.00,0.00,29.5,26.3,00.0,38.2,31.2,16.6,0000.0,0014.93,0006.78,0005.88
2022-09-02 02:06:00,,0825.7,5.00,0.00,29.4,26.2,00.0,38.1,31.2,16.6,0000.0,0014.81,0006.80,0005.89
2022-09-02 02:07:00,,0825.7,5.00,0.00,29.4,26.5,00.0,38.1,31.1,16.7,0000.0,0014.97,0006.80,0005.89
2022-09-02 02:08:00,,0825.7,5.00,0.00,29.3,26.8,00.0,38.0,31.0,16.7,0000.0,0014.84,0006.80,0005.90
2022-09-02 02:09:00,,0826.0,5.00,0.00,29.3,27.2,00.0,38.0,31.1,16.7,0000.0,0014.69,0006.78,0005.90
2022-09-02 02:10:00,,0826.0,5.00,0.00,29.4,27.5,00.0,38.0,31.2,16.7,0000.0,0014.44,0006.75,0005.90
2022-09-02 02:11:00,,0825.9,5.00,0.00,29.4,27.8,00.0,38.1,31.3,16.7,0000.0,0013.31,0006.74,0005.91
2022-09-02 02:12:00,,0825.9,5.01,0.00,29.4,28.0,00.0,38.1,31.3,16.8,0000.0,0012.97,0006.72,0005.92
2022-09-02 02:13:00,,0825.9,4.99,0.00,29.4,28.2,00.0,38.1,31.4,16.4,0000.0,0012.35,0006.68,0005.93
2022-09-02 02:14:00,,0825.9,5.00,0.00,29.5,28.4,00.0,38.1,31.4,16.3,0000.0,0012.53,0006.63,0005.92
2022-09-02 02:15:00,,0825.8,5.01,0.00,29.5,28.5,00.0,38.1,31.5,16.3,0000.0,0012.11,0006.57,0005.91
2022-09-02 02:16:00,,0825.8,4.99,0.00,29.6,28.6,00.0,38.2,31.6,16.2,0000.0,0011.92,0006.55,0005.90
2022-09-02 02:17:00,,0825.8,5.00,0.00,29.6,28.1,00.0,38.2,31.5,16.2,0000.0,0011.91,0006.55,0005.91
2022-09-02 02:18:00,,0825.8,5.01,0.00,29.5,26.7,00.0,38.2,31.2,16.3,0000.0,0011.69,0006.54,0005.91
2022-09-02 02:19:00,,0825.9,5.00,0.00,29.5,26.1,00.0,38.1,31.2,16.3,0000.0,0011.73,0006.56,0005.92
2022-09-02 02:20:00,,0825.8,4.99,0.00,29.4,26.3,00.0,38.1,31.2,16.3,0000.0,0011.81,0006.59,0005.94
2022-09-02 02:21:00,,0825.9,5.00,0.00,29.3,26.7,00.0,38.1,31.1,16.4,0000.0,0011.98,0006.62,0005.95
2022-09-02 02:22:00,,0825.8,5.00,0.00,29.3,27.1,00.0,38.0,31.1,16.6,0000.0,0011.97,0006.63,0005.94
2022-09-02 02:23:00,,0825.9,4.99,0.00,29.3,27.4,00.0,38.0,31.2,16.7,0000.0,0012.24,0006.68,0005.94
2022-09-02 02:24:00,,0825.9,5.00,0.00,29.4,27.7,00.0,38.0,31.2,16.7,0000.0,0012.52,0006.72,0005.95
2022-09-02 02:25:00,,0825.9,5.00,0.00,29.4,27.9,00.0,38.1,31.3,16.5,0000.0,0012.52,0006.77,0005.96
2022-09-02 02:26:00,,0826.0,5.01,0.00,29.4,28.1,00.0,38.1,31.3,16.5,0000.0,0011.91,0006.78,0005.96
2022-09-02 02:27:00,,0826.0,4.99,0.00,29.5,28.3,00.0,38.1,31.4,16.6,0000.0,0012.61,0006.85,0005.98
2022-09-02 02:28:00,,0825.9,5.01,0.00,29.5,28.5,00.0,38.1,31.4,16.3,0000.0,0013.12,0006.84,0005.97
2022-09-02 02:29:00,,0825.9,5.01,0.00,29.5,28.5,00.0,38.2,31.5,16.4,0000.0,0013.59,0006.85,0005.98
2022-09-02 02:30:00,,0825.9,4.98,0.00,29.6,28.3,00.0,38.2,31.5,16.4,0000.0,0014.08,0006.89,0005.99
2022-09-02 02:31:00,,0826.0,5.01,0.00,29.6,27.1,00.0,38.2,31.4,16.5,0000.0,0014.90,0006.91,0005.99
2022-09-02 02:32:00,,0826.0,5.00,0.00,29.5,26.8,00.0,38.1,31.3,16.5,0000.0,0014.80,0006.91,0005.99
2022-09-02 02:33:00,,0825.9,5.00,0.00,29.5,27.0,00.0,38.1,31.3,16.6,0000.0,0015.28,0006.93,0006.01
2022-09-02 02:34:00,,0825.9,5.01,0.00,29.5,27.3,00.0,38.1,31.3,16.7,0000.0,0015.19,0006.88,0006.01
2022-09-02 02:35:00,,0825.9,5.00,0.00,29.5,27.5,00.0,38.1,31.3,16.6,0000.0,0014.59,0006.88,0006.02
2022-09-02 02:36:00,,0826.0,5.00,0.00,29.5,27.8,00.0,38.1,31.3,16.7,0000.0,0014.13,0006.90,0006.03
2022-09-02 02:37:00,,0826.0,5.01,0.00,29.5,28.1,00.0,38.1,31.4,16.7,0000.0,0014.12,0006.88,0006.04
2022-09-02 02:38:00,,0826.0,5.00,0.00,29.5,28.3,00.0,38.1,31.4,16.7,0000.0,0013.69,0006.86,0006.03
2022-09-02 02:39:00,,0826.0,4.98,0.00,29.6,28.5,00.0,38.2,31.5,16.6,0000.0,0013.49,0006.90,0006.04
2022-09-02 02:40:00,,0826.0,5.00,0.00,29.6,28.6,00.0,38.2,31.5,16.5,0000.0,0013.50,0006.91,0006.04
2022-09-02 02:41:00,,0826.0,5.00,0.00,29.6,28.5,00.0,38.2,31.6,16.4,0000.0,0012.93,0006.88,0006.03
2022-09-02 02:42:00,,0826.0,4.99,0.00,29.6,27.3,00.0,38.2,31.5,16.5,0000.0,0012.26,0006.90,0006.04
2022-09-02 02:43:00,,0826.0,5.00,0.00,29.6,26.2,00.0,38.2,31.3,16.5,0000.0,0012.91,0006.89,0006.04
2022-09-02 02:44:00,,0826.0,5.00,0.00,29.5,26.2,00.0,38.2,31.3,16.6,0000.0,0013.15,0006.85,0006.03
2022-09-02 02:45:00,,0826.0,5.00,0.00,29.4,26.4,00.0,38.1,31.1,16.7,0000.0,0013.31,0006.88,0006.04
2022-09-02 02:46:00,,0826.0,5.00,0.00,29.4,26.8,00.0,38.1,31.1,16.7,0000.0,0013.45,0006.87,0006.04
2022-09-02 02:47:00,,0826.0,4.99,0.00,29.4,27.2,00.0,38.1,31.2,16.7,0000.0,0013.72,0006.86,0006.04
2022-09-02 02:48:00,,0826.0,5.01,0.00,29.4,27.5,00.0,38.1,31.2,16.7,0000.0,0013.83,0006.90,0006.05
2022-09-02 02:49:00,,0826.0,5.00,0.00,29.4,27.8,00.0,38.1,31.3,16.8,0000.0,0014.18,0006.90,0006.06
2022-09-02 02:50:00,,0826.0,5.00,0.00,29.4,28.0,00.0,38.1,31.3,16.7,0000.0,0014.26,0006.87,0006.06
2022-09-02 02:51:00,,0826.0,5.01,0.00,29.4,28.2,00.0,38.1,31.3,16.7,0000.0,0014.81,0006.91,0006.08
2022-09-02 02:52:00,,0826.0,5.00,0.00,29.5,28.3,00.0,38.1,31.4,16.6,0000.0,0015.26,0006.93,0006.10
2022-09-02 02:53:00,,0826.0,4.98,0.00,29.5,28.5,00.0,38.2,31.4,16.5,0000.0,0015.20,0006.92,0006.11
2022-09-02 02:54:00,,0826.0,5.01,0.00,29.6,28.6,00.0,38.2,31.5,16.5,0000.0,0015.22,0006.96,0006.13
2022-09-02 02:55:00,,0826.0,4.99,0.00,29.6,28.7,00.0,38.2,31.6,16.6,0000.0,0015.21,0007.00,0006.15
2022-09-02 02:56:00,,0826.0,5.01,0.00,29.6,28.8,00.0,38.2,31.6,16.5,-000.8,0015.13,0007.02,0006.18
2022-09-02 02:57:00,,0826.0,4.99,0.00,29.7,28.2,00.0,38.3,31.6,16.4,-000.4,0015.11,0007.04,0006.20
2022-09-02 02:58:00,,0826.0,5.00,0.00,29.6,26.7,00.0,38.2,31.4,16.5,0000.0,0015.14,0007.04,0006.22
2022-09-02 02:59:00,,0826.0,4.99,0.00,29.6,26.2,00.0,38.2,31.4,16.5,0000.0,0015.60,0007.04,0006.24
